Time,TemperatureF,DewpointF,PressureIn,WindDirection,WindDirectionDegrees,WindSpeedMPH,WindSpeedGustMPH,Humidity,HourlyPrecipIn,Conditions,Clouds,dailyrainin,SoftwareType,DateUTC
2013-01-22 00:00:00,28.7,0.6,29.93,WNW,284,0.0,4.5,29,0.00,,---,0.00,VWS V14.01,2013-01-22 05:00:00,
2013-01-22 00:01:00,28.7,0.6,29.93,NW,311,0.0,4.5,29,0.00,,---,0.00,VWS V14.01,2013-01-22 05:01:00,
2013-01-22 00:03:00,28.7,0.6,29.93,SW,215,3.9,3.9,29,0.00,,---,0.00,VWS V14.01,2013-01-22 05:03:00,
2013-01-22 00:08:00,28.5,0.4,29.93,NNE,12,7.8,7.8,29,0.00,,---,0.00,VWS V14.01,2013-01-22 05:08:00,
2013-01-22 00:13:00,28.3,0.3,29.93,NNW,334,0.0,5.8,29,0.00,,---,0.00,VWS V14.01,2013-01-22 05:13:00,
2013-01-22 00:19:00,28.3,0.3,29.93,NW,323,0.0,5.2,29,0.00,,---,0.00,VWS V14.01,2013-01-22 05:19:00,
2013-01-22 00:24:00,28.3,0.3,29.93,NW,317,3.2,3.9,29,0.00,,---,0.00,VWS V14.01,2013-01-22 05:24:00,
2013-01-22 00:29:00,28.1,0.1,29.93,NW,319,7.1,7.1,29,0.00,,---,0.00,VWS V14.01,2013-01-22 05:29:00,
2013-01-22 00:34:00,28.0,0.0,29.93,NNW,333,5.2,5.8,29,0.00,,---,0.00,VWS V14.01,2013-01-22 05:34:00,
2013-01-22 00:39:00,27.8,-0.2,29.93,North,0,5.8,5.8,29,0.00,,---,0.00,VWS V14.01,2013-01-22 05:39:00,
2013-01-22 00:45:00,27.6,-0.3,29.96,North,0,5.8,8.4,29,0.00,,---,0.00,VWS V14.01,2013-01-22 05:45:00,
2013-01-22 00:50:00,27.4,-0.5,29.96,North,353,8.4,11.7,29,0.00,,---,0.00,VWS V14.01,2013-01-22 05:50:00,
2013-01-22 00:55:00,27.2,-0.7,29.96,WNW,290,5.2,9.1,29,0.00,,---,0.00,VWS V14.01,2013-01-22 05:55:00,
2013-01-22 01:00:00,27.1,-0.8,29.96,NNW,333,12.6,12.6,29,0.00,,---,0.00,VWS V14.01,2013-01-22 06:00:00,
2013-01-22 01:05:00,26.9,-1.0,29.96,SW,219,11.7,14.6,29,0.00,,---,0.00,VWS V14.01,2013-01-22 06:05:00,
2013-01-22 01:10:00,26.7,-1.1,29.96,WNW,292,9.1,9.1,29,0.00,,---,0.00,VWS V14.01,2013-01-22 06:10:00,
2013-01-22 01:15:00,26.5,-1.3,29.96,NNW,335,9.1,10.4,29,0.00,,---,0.00,VWS V14.01,2013-01-22 06:15:00,
2013-01-22 01:21:00,26.3,-1.5,29.96,West,273,3.2,11.7,29,0.00,,---,0.00,VWS V14.01,2013-01-22 06:21:00,
2013-01-22 01:26:00,26.2,-1.6,29.96,NW,311,3.9,7.1,29,0.00,,---,0.00,VWS V14.01,2013-01-22 06:26:00,
2013-01-22 01:31:00,26.0,-1.8,29.96,SW,214,5.2,5.2,29,0.00,,---,0.00,VWS V14.01,2013-01-22 06:31:00,
2013-01-22 01:36:00,26.0,-1.8,29.96,North,353,3.2,5.8,29,0.00,,---,0.00,VWS V14.01,2013-01-22 06:36:00,
2013-01-22 01:41:00,25.8,-0.9,29.96,NNW,339,3.9,7.1,31,0.00,,---,0.00,VWS V14.01,2013-01-22 06:41:00,
2013-01-22 01:46:00,25.6,-1.1,29.96,NNW,342,10.4,11.0,31,0.00,,---,0.00,VWS V14.01,2013-01-22 06:46:00,
2013-01-22 01:51:00,25.4,-1.3,29.96,NNW,338,5.8,5.8,31,0.00,,---,0.00,VWS V14.01,2013-01-22 06:51:00,
2013-01-22 01:56:00,25.3,-1.4,29.96,NNW,346,11.7,11.7,31,0.00,,---,0.00,VWS V14.01,2013-01-22 06:56:00,
2013-01-22 02:01:00,25.1,-1.6,29.96,NNW,340,4.5,7.8,31,0.00,,---,0.00,VWS V14.01,2013-01-22 07:01:00,
2013-01-22 02:06:00,24.7,-1.9,29.96,NNW,346,7.8,7.8,31,0.00,,---,0.00,VWS V14.01,2013-01-22 07:06:00,
2013-01-22 02:11:00,24.5,-2.0,29.96,NNW,331,3.2,5.8,31,0.00,,---,0.00,VWS V14.01,2013-01-22 07:11:00,
2013-01-22 02:17:00,24.4,-2.2,29.96,NNW,328,8.4,15.2,31,0.00,,---,0.00,VWS V14.01,2013-01-22 07:17:00,
2013-01-22 02:22:00,24.0,-2.5,29.96,NNW,345,5.2,12.0,31,0.00,,---,0.00,VWS V14.01,2013-01-22 07:22:00,
2013-01-22 02:27:00,23.8,-2.7,29.99,NNW,340,5.2,5.8,31,0.00,,---,0.00,VWS V14.01,2013-01-22 07:27:00,
2013-01-22 02:32:00,23.8,-2.7,29.99,NNW,327,11.0,11.0,31,0.00,,---,0.00,VWS V14.01,2013-01-22 07:32:00,
2013-01-22 02:37:00,23.6,-2.8,29.99,West,271,4.5,6.5,31,0.00,,---,0.00,VWS V14.01,2013-01-22 07:37:00,
2013-01-22 02:42:00,23.5,-3.0,29.99,NNW,340,5.8,13.9,31,0.00,,---,0.00,VWS V14.01,2013-01-22 07:42:00,
2013-01-22 02:48:00,23.3,-3.2,29.99,NNW,334,5.2,5.8,31,0.00,,---,0.00,VWS V14.01,2013-01-22 07:48:00,
2013-01-22 02:53:00,23.1,-3.3,29.99,NNW,341,8.4,12.0,31,0.00,,---,0.00,VWS V14.01,2013-01-22 07:53:00,
2013-01-22 02:58:00,22.9,-3.5,29.99,NW,311,7.8,9.1,31,0.00,,---,0.00,VWS V14.01,2013-01-22 07:58:00,
2013-01-22 03:03:00,22.7,-3.6,29.99,North,357,15.9,15.9,31,0.00,,---,0.00,VWS V14.01,2013-01-22 08:03:00,
2013-01-22 03:08:00,22.7,-3.6,29.99,NNW,339,8.4,9.1,31,0.00,,---,0.00,VWS V14.01,2013-01-22 08:08:00,
2013-01-22 03:13:00,22.6,-3.8,29.99,NNW,337,8.4,15.2,31,0.00,,---,0.00,VWS V14.01,2013-01-22 08:13:00,
2013-01-22 03:18:00,22.4,-4.0,29.99,NNW,343,12.6,13.3,31,0.00,,---,0.00,VWS V14.01,2013-01-22 08:18:00,
2013-01-22 03:24:00,22.2,-4.1,29.99,NW,308,7.8,19.1,31,0.00,,---,0.00,VWS V14.01,2013-01-22 08:24:00,
2013-01-22 03:29:00,22.2,-4.1,29.99,NNW,330,12.0,12.6,31,0.00,,---,0.00,VWS V14.01,2013-01-22 08:29:00,
2013-01-22 03:34:00,22.0,-4.3,29.99,NW,317,11.7,17.8,31,0.00,,---,0.00,VWS V14.01,2013-01-22 08:34:00,
2013-01-22 03:39:00,21.8,-4.4,29.99,NW,326,9.7,11.7,31,0.00,,---,0.00,VWS V14.01,2013-01-22 08:39:00,
2013-01-22 03:44:00,21.7,-4.6,29.99,North,349,11.7,13.3,31,0.00,,---,0.00,VWS V14.01,2013-01-22 08:44:00,
2013-01-22 03:49:00,21.5,-4.7,29.99,NNW,329,12.0,12.0,31,0.00,,---,0.00,VWS V14.01,2013-01-22 08:49:00,
2013-01-22 03:54:00,21.3,-4.9,29.99,NNW,334,11.7,14.6,31,0.00,,---,0.00,VWS V14.01,2013-01-22 08:54:00,
2013-01-22 04:00:00,21.3,-4.9,30.02,NNW,338,9.1,15.9,31,0.00,,---,0.00,VWS V14.01,2013-01-22 09:00:00,
2013-01-22 04:05:00,21.1,-5.1,30.02,NNW,343,5.8,8.4,31,0.00,,---,0.00,VWS V14.01,2013-01-22 09:05:00,
2013-01-22 04:10:00,20.9,-5.2,30.02,NW,311,8.4,18.5,31,0.00,,---,0.00,VWS V14.01,2013-01-22 09:10:00,
2013-01-22 04:15:00,20.9,-5.2,30.02,NNW,341,9.7,12.0,31,0.00,,---,0.00,VWS V14.01,2013-01-22 09:15:00,
2013-01-22 04:20:00,20.8,-5.4,30.02,NNW,327,11.7,14.6,31,0.00,,---,0.00,VWS V14.01,2013-01-22 09:20:00,
2013-01-22 04:25:00,20.8,-5.4,30.02,NW,318,8.4,17.8,31,0.00,,---,0.00,VWS V14.01,2013-01-22 09:25:00,
2013-01-22 04:30:00,20.6,-5.5,30.02,North,357,9.7,9.7,31,0.00,,---,0.00,VWS V14.01,2013-01-22 09:30:00,
2013-01-22 04:35:00,20.4,-4.8,30.02,NNW,340,12.6,15.9,32,0.00,,---,0.00,VWS V14.01,2013-01-22 09:35:00,
2013-01-22 04:40:00,20.4,-4.8,30.02,NW,321,12.6,12.6,32,0.00,,---,0.00,VWS V14.01,2013-01-22 09:40:00,
2013-01-22 04:45:00,20.2,-4.9,30.02,North,350,11.0,11.0,32,0.00,,---,0.00,VWS V14.01,2013-01-22 09:45:00,
2013-01-22 04:50:00,20.2,-4.9,30.02,NNW,332,7.8,11.7,32,0.00,,---,0.00,VWS V14.01,2013-01-22 09:50:00,
2013-01-22 04:55:00,20.0,-5.1,30.02,North,0,7.8,11.0,32,0.00,,---,0.00,VWS V14.01,2013-01-22 09:55:00,
2013-01-22 05:00:00,19.9,-5.2,30.02,NNW,334,5.2,12.6,32,0.00,,---,0.00,VWS V14.01,2013-01-22 10:00:00,
2013-01-22 05:06:00,19.7,-5.4,30.02,NW,323,12.0,12.0,32,0.00,,---,0.00,VWS V14.01,2013-01-22 10:06:00,
2013-01-22 05:11:00,19.5,-5.6,30.02,North,353,8.4,12.0,32,0.00,,---,0.00,VWS V14.01,2013-01-22 10:11:00,
2013-01-22 05:16:00,19.5,-5.6,30.02,NW,319,12.6,14.6,32,0.00,,---,0.00,VWS V14.01,2013-01-22 10:16:00,
2013-01-22 05:21:00,19.3,-5.7,30.02,NNW,343,3.9,11.0,32,0.00,,---,0.00,VWS V14.01,2013-01-22 10:21:00,
2013-01-22 05:26:00,19.3,-5.7,30.02,NNW,333,5.8,12.6,32,0.00,,---,0.00,VWS V14.01,2013-01-22 10:26:00,
2013-01-22 05:31:00,19.1,-5.9,30.05,NNW,342,12.6,12.6,32,0.00,,---,0.00,VWS V14.01,2013-01-22 10:31:00,
2013-01-22 05:36:00,19.0,-6.0,30.05,NNW,335,11.0,11.0,32,0.00,,---,0.00,VWS V14.01,2013-01-22 10:36:00,
2013-01-22 05:42:00,18.8,-6.2,30.05,NW,326,4.5,4.5,32,0.00,,---,0.00,VWS V14.01,2013-01-22 10:42:00,
2013-01-22 05:47:00,18.6,-6.4,30.05,NNW,344,3.2,4.5,32,0.00,,---,0.00,VWS V14.01,2013-01-22 10:47:00,
2013-01-22 05:52:00,18.6,-6.4,30.05,NNW,339,0.0,0.0,32,0.00,,---,0.00,VWS V14.01,2013-01-22 10:52:00,
2013-01-22 05:57:00,18.4,-6.5,30.05,NNW,331,4.5,5.2,32,0.00,,---,0.00,VWS V14.01,2013-01-22 10:57:00,
2013-01-22 06:02:00,18.2,-6.7,30.05,NNE,27,3.9,3.9,32,0.00,,---,0.00,VWS V14.01,2013-01-22 11:02:00,
2013-01-22 06:07:00,18.1,-6.8,30.05,NNW,334,3.9,4.5,32,0.00,,---,0.00,VWS V14.01,2013-01-22 11:07:00,
2013-01-22 06:12:00,17.9,-7.0,30.08,NNW,344,3.2,3.2,32,0.00,,---,0.00,VWS V14.01,2013-01-22 11:12:00,
2013-01-22 06:17:00,17.9,-7.0,30.08,North,7,3.9,5.8,32,0.00,,---,0.00,VWS V14.01,2013-01-22 11:17:00,
2013-01-22 06:22:00,17.7,-7.2,30.08,NNW,341,5.2,9.1,32,0.00,,---,0.00,VWS V14.01,2013-01-22 11:22:00,
2013-01-22 06:27:00,17.5,-7.3,30.05,NNW,334,7.8,9.1,32,0.00,,---,0.00,VWS V14.01,2013-01-22 11:27:00,
2013-01-22 06:33:00,17.3,-7.5,30.05,North,0,7.1,9.1,32,0.00,,---,0.00,VWS V14.01,2013-01-22 11:33:00,
2013-01-22 06:38:00,17.2,-7.6,30.05,NNW,338,5.2,7.8,32,0.00,,---,0.00,VWS V14.01,2013-01-22 11:38:00,
2013-01-22 06:43:00,17.2,-7.6,30.08,North,353,7.8,9.1,32,0.00,,---,0.00,VWS V14.01,2013-01-22 11:43:00,
2013-01-22 06:48:00,17.0,-7.8,30.08,NW,326,7.8,11.0,32,0.00,,---,0.00,VWS V14.01,2013-01-22 11:48:00,
2013-01-22 06:53:00,17.0,-7.8,30.08,North,357,15.2,16.5,32,0.00,,---,0.00,VWS V14.01,2013-01-22 11:53:00,
2013-01-22 06:58:00,17.0,-7.8,30.08,North,353,12.6,12.6,32,0.00,,---,0.00,VWS V14.01,2013-01-22 11:58:00,
2013-01-22 07:03:00,17.0,-7.8,30.08,NNW,341,14.6,14.6,32,0.00,,---,0.00,VWS V14.01,2013-01-22 12:03:00,
2013-01-22 07:08:00,17.0,-7.8,30.08,North,353,14.6,14.6,32,0.00,,---,0.00,VWS V14.01,2013-01-22 12:08:00,
2013-01-22 07:13:00,16.8,-7.1,30.08,NW,323,17.8,22.4,33,0.00,,---,0.00,VWS V14.01,2013-01-22 12:13:00,
2013-01-22 07:18:00,16.8,-7.1,30.08,NW,325,17.2,17.8,33,0.00,,---,0.00,VWS V14.01,2013-01-22 12:18:00,
2013-01-22 07:23:00,16.8,-7.1,30.08,NNW,335,12.6,12.6,33,0.00,,---,0.00,VWS V14.01,2013-01-22 12:23:00,
2013-01-22 07:29:00,16.6,-10.0,30.08,North,353,11.7,18.5,29,0.00,,---,0.00,VWS V14.01,2013-01-22 12:29:00,
2013-01-22 07:34:00,16.4,-10.1,30.08,NNW,332,15.2,22.4,29,0.00,,---,0.00,VWS V14.01,2013-01-22 12:34:00,
2013-01-22 07:39:00,16.4,-7.4,30.08,WSW,237,14.6,15.9,33,0.00,,---,0.00,VWS V14.01,2013-01-22 12:39:00,
2013-01-22 07:44:00,16.3,-10.3,30.11,NW,323,12.0,15.9,29,0.00,,---,0.00,VWS V14.01,2013-01-22 12:44:00,
2013-01-22 07:49:00,16.3,-10.3,30.11,NW,319,10.4,16.5,29,0.00,,---,0.00,VWS V14.01,2013-01-22 12:49:00,
2013-01-22 07:54:00,16.3,-10.3,30.11,NNW,331,9.1,12.0,29,0.00,,---,0.00,VWS V14.01,2013-01-22 12:54:00,
2013-01-22 07:59:00,16.1,-7.7,30.11,NNW,332,15.2,15.2,33,0.00,,---,0.00,VWS V14.01,2013-01-22 12:59:00,
2013-01-22 08:04:00,16.1,-7.7,30.11,NNW,338,11.0,17.8,33,0.00,,---,0.00,VWS V14.01,2013-01-22 13:04:00,
2013-01-22 08:09:00,16.1,-7.7,30.11,NW,326,11.7,11.7,33,0.00,,---,0.00,VWS V14.01,2013-01-22 13:09:00,
2013-01-22 08:14:00,16.3,-7.6,30.11,NW,321,4.5,9.7,33,0.00,,---,0.00,VWS V14.01,2013-01-22 13:14:00,
2013-01-22 08:19:00,16.3,-7.6,30.11,NNW,340,7.8,8.4,33,0.00,,---,0.00,VWS V14.01,2013-01-22 13:19:00,
2013-01-22 08:24:00,16.4,-7.4,30.11,West,263,5.8,8.4,33,0.00,,---,0.00,VWS V14.01,2013-01-22 13:24:00,
2013-01-22 08:29:00,16.4,-7.4,30.14,WNW,284,12.0,12.0,33,0.00,,---,0.00,VWS V14.01,2013-01-22 13:29:00,
2013-01-22 08:34:00,16.4,-10.1,30.14,NNW,327,7.8,13.9,29,0.00,,---,0.00,VWS V14.01,2013-01-22 13:34:00,
2013-01-22 08:40:00,16.6,-7.2,30.14,North,353,8.4,8.4,33,0.00,,---,0.00,VWS V14.01,2013-01-22 13:40:00,
2013-01-22 08:45:00,16.8,-7.1,30.14,NNW,339,4.5,7.8,33,0.00,,---,0.00,VWS V14.01,2013-01-22 13:45:00,
2013-01-22 08:50:00,16.8,-9.8,30.14,NW,312,11.0,13.9,29,0.00,,---,0.00,VWS V14.01,2013-01-22 13:50:00,
2013-01-22 08:55:00,16.8,-9.8,30.14,North,353,0.0,3.2,29,0.00,,---,0.00,VWS V14.01,2013-01-22 13:55:00,
2013-01-22 09:00:00,17.0,-9.6,30.14,WSW,240,8.4,11.0,29,0.00,,---,0.00,VWS V14.01,2013-01-22 14:00:00,
2013-01-22 09:05:00,17.2,-9.5,30.14,NNW,330,3.9,3.9,29,0.00,,---,0.00,VWS V14.01,2013-01-22 14:05:00,
2013-01-22 09:10:00,17.2,-7.6,30.14,NW,324,11.0,11.0,32,0.00,,---,0.00,VWS V14.01,2013-01-22 14:10:00,
2013-01-22 09:15:00,17.3,-9.3,30.14,NNW,341,14.6,14.6,29,0.00,,---,0.00,VWS V14.01,2013-01-22 14:15:00,
2013-01-22 09:20:00,17.5,-9.2,30.14,West,281,5.2,15.9,29,0.00,,---,0.00,VWS V14.01,2013-01-22 14:20:00,
2013-01-22 09:25:00,17.5,-9.2,30.14,NNW,339,5.2,15.2,29,0.00,,---,0.00,VWS V14.01,2013-01-22 14:25:00,
2013-01-22 09:31:00,17.5,-9.2,30.16,NNW,341,4.5,5.8,29,0.00,,---,0.00,VWS V14.01,2013-01-22 14:31:00,
2013-01-22 09:36:00,17.5,-9.2,30.16,NW,322,5.2,7.8,29,0.00,,---,0.00,VWS V14.01,2013-01-22 14:36:00,
2013-01-22 09:41:00,17.5,-9.2,30.16,WSW,256,5.8,11.7,29,0.00,,---,0.00,VWS V14.01,2013-01-22 14:41:00,
2013-01-22 09:46:00,17.7,-9.0,30.16,North,353,3.9,12.6,29,0.00,,---,0.00,VWS V14.01,2013-01-22 14:46:00,
2013-01-22 09:51:00,17.9,-8.9,30.16,NNW,330,14.6,15.2,29,0.00,,---,0.00,VWS V14.01,2013-01-22 14:51:00,
2013-01-22 09:56:00,18.1,-8.7,30.16,NNW,343,0.0,0.0,29,0.00,,---,0.00,VWS V14.01,2013-01-22 14:56:00,
2013-01-22 10:01:00,18.2,-8.5,30.16,WNW,288,8.4,10.4,29,0.00,,---,0.00,VWS V14.01,2013-01-22 15:01:00,
2013-01-22 10:06:00,18.4,-8.4,30.16,North,0,5.8,5.8,29,0.00,,---,0.00,VWS V14.01,2013-01-22 15:06:00,
2013-01-22 10:12:00,18.4,-8.4,30.16,NNW,337,4.5,4.5,29,0.00,,---,0.00,VWS V14.01,2013-01-22 15:12:00,
2013-01-22 10:17:00,18.6,-8.2,30.16,NNW,329,11.7,11.7,29,0.00,,---,0.00,VWS V14.01,2013-01-22 15:17:00,
2013-01-22 10:22:00,18.6,-8.2,30.16,North,353,7.8,7.8,29,0.00,,---,0.00,VWS V14.01,2013-01-22 15:22:00,
2013-01-22 10:27:00,18.6,-8.2,30.16,NW,309,8.4,12.6,29,0.00,,---,0.00,VWS V14.01,2013-01-22 15:27:00,
2013-01-22 10:32:00,18.8,-9.1,30.16,NW,324,7.1,7.8,28,0.00,,---,0.00,VWS V14.01,2013-01-22 15:32:00,
2013-01-22 10:37:00,19.1,-8.8,30.16,North,0,11.7,11.7,28,0.00,,---,0.00,VWS V14.01,2013-01-22 15:37:00,
2013-01-22 10:43:00,19.1,-8.8,30.16,NW,321,10.4,10.4,28,0.00,,---,0.00,VWS V14.01,2013-01-22 15:43:00,
2013-01-22 10:48:00,19.1,-8.8,30.16,South,173,7.8,9.1,28,0.00,,---,0.00,VWS V14.01,2013-01-22 15:48:00,
2013-01-22 10:53:00,19.3,-8.6,30.16,NW,321,8.4,11.7,28,0.00,,---,0.00,VWS V14.01,2013-01-22 15:53:00,
2013-01-22 10:58:00,19.5,-8.4,30.16,North,357,6.5,7.8,28,0.00,,---,0.00,VWS V14.01,2013-01-22 15:58:00,
2013-01-22 11:03:00,19.7,-8.3,30.16,NW,317,5.2,7.8,28,0.00,,---,0.00,VWS V14.01,2013-01-22 16:03:00,
2013-01-22 11:08:00,20.0,-8.0,30.16,North,0,4.5,5.2,28,0.00,,---,0.00,VWS V14.01,2013-01-22 16:08:00,
2013-01-22 11:13:00,20.4,-7.7,30.16,WSW,251,3.9,4.5,28,0.00,,---,0.00,VWS V14.01,2013-01-22 16:13:00,
2013-01-22 11:18:00,20.6,-7.5,30.16,NNW,342,3.9,9.1,28,0.00,,---,0.00,VWS V14.01,2013-01-22 16:18:00,
2013-01-22 11:24:00,20.6,-7.5,30.16,NNW,337,7.8,7.8,28,0.00,,---,0.00,VWS V14.01,2013-01-22 16:24:00,
2013-01-22 11:29:00,20.8,-7.3,30.16,WSW,249,9.1,19.1,28,0.00,,---,0.00,VWS V14.01,2013-01-22 16:29:00,
2013-01-22 11:34:00,20.4,-7.7,30.16,NW,317,3.9,9.1,28,0.00,,---,0.00,VWS V14.01,2013-01-22 16:34:00,
2013-01-22 11:39:00,20.4,-7.7,30.16,SSW,193,0.0,0.0,28,0.00,,---,0.00,VWS V14.01,2013-01-22 16:39:00,
2013-01-22 11:44:00,20.6,-7.5,30.14,North,0,9.1,9.1,28,0.00,,---,0.00,VWS V14.01,2013-01-22 16:44:00,
2013-01-22 11:49:00,20.9,-7.2,30.14,WNW,298,11.0,12.0,28,0.00,,---,0.00,VWS V14.01,2013-01-22 16:49:00,
2013-01-22 11:54:00,20.9,-7.2,30.14,NNW,339,11.7,11.7,28,0.00,,---,0.00,VWS V14.01,2013-01-22 16:54:00,
2013-01-22 11:59:00,21.1,-7.0,30.14,North,353,8.4,11.7,28,0.00,,---,0.00,VWS V14.01,2013-01-22 16:59:00,
2013-01-22 12:04:00,21.3,-6.9,30.14,NNE,30,4.5,7.1,28,0.00,,---,0.00,VWS V14.01,2013-01-22 17:04:00,
2013-01-22 12:10:00,21.7,-6.6,30.14,NW,307,9.1,9.1,28,0.00,,---,0.00,VWS V14.01,2013-01-22 17:10:00,
2013-01-22 12:15:00,21.7,-6.6,30.14,WNW,287,4.5,8.4,28,0.00,,---,0.00,VWS V14.01,2013-01-22 17:15:00,
2013-01-22 12:20:00,21.7,-6.6,30.14,NNE,25,7.8,7.8,28,0.00,,---,0.00,VWS V14.01,2013-01-22 17:20:00,
2013-01-22 12:25:00,21.8,-6.4,30.14,NNW,339,12.6,12.6,28,0.00,,---,0.00,VWS V14.01,2013-01-22 17:25:00,
2013-01-22 12:30:00,22.0,-6.2,30.11,NNW,331,3.2,4.5,28,0.00,,---,0.00,VWS V14.01,2013-01-22 17:30:00,
2013-01-22 12:35:00,22.2,-6.1,30.11,North,0,14.6,22.4,28,0.00,,---,0.00,VWS V14.01,2013-01-22 17:35:00,
2013-01-22 12:40:00,22.2,-6.1,30.11,NNW,341,15.2,15.2,28,0.00,,---,0.00,VWS V14.01,2013-01-22 17:40:00,
2013-01-22 12:45:00,22.2,-6.1,30.14,West,281,0.0,3.9,28,0.00,,---,0.00,VWS V14.01,2013-01-22 17:45:00,
2013-01-22 12:50:00,22.4,-5.9,30.14,WNW,287,7.8,7.8,28,0.00,,---,0.00,VWS V14.01,2013-01-22 17:50:00,
2013-01-22 12:55:00,22.6,-5.8,30.14,NW,321,5.8,11.0,28,0.00,,---,0.00,VWS V14.01,2013-01-22 17:55:00,
2013-01-22 13:00:00,22.9,-5.4,30.11,North,8,5.2,7.8,28,0.00,,---,0.00,VWS V14.01,2013-01-22 18:00:00,
2013-01-22 13:05:00,23.1,-5.3,30.11,North,0,4.5,7.1,28,0.00,,---,0.00,VWS V14.01,2013-01-22 18:05:00,
2013-01-22 13:11:00,23.3,-5.1,30.11,WNW,293,5.8,9.1,28,0.00,,---,0.00,VWS V14.01,2013-01-22 18:11:00,
2013-01-22 13:16:00,23.5,-5.0,30.11,NW,322,8.4,12.6,28,0.00,,---,0.00,VWS V14.01,2013-01-22 18:16:00,
2013-01-22 13:21:00,23.5,-5.0,30.11,North,353,12.6,14.6,28,0.00,,---,0.00,VWS V14.01,2013-01-22 18:21:00,
2013-01-22 13:26:00,23.5,-5.0,30.11,NNW,329,4.5,4.5,28,0.00,,---,0.00,VWS V14.01,2013-01-22 18:26:00,
2013-01-22 13:31:00,23.6,-4.8,30.11,WSW,257,3.9,5.2,28,0.00,,---,0.00,VWS V14.01,2013-01-22 18:31:00,
2013-01-22 13:36:00,23.8,-4.7,30.11,NNW,345,4.5,5.2,28,0.00,,---,0.00,VWS V14.01,2013-01-22 18:36:00,
2013-01-22 13:41:00,24.2,-5.4,30.11,WNW,285,5.8,7.1,26,0.00,,---,0.00,VWS V14.01,2013-01-22 18:41:00,
2013-01-22 13:47:00,24.5,-5.1,30.11,North,8,0.0,5.2,26,0.00,,---,0.00,VWS V14.01,2013-01-22 18:47:00,
2013-01-22 13:52:00,24.5,-5.1,30.11,NW,321,0.0,10.4,26,0.00,,---,0.00,VWS V14.01,2013-01-22 18:52:00,
2013-01-22 13:57:00,24.5,-5.1,30.11,SW,225,5.2,5.8,26,0.00,,---,0.00,VWS V14.01,2013-01-22 18:57:00,
2013-01-22 14:02:00,24.7,-4.9,30.11,NW,304,5.2,8.4,26,0.00,,---,0.00,VWS V14.01,2013-01-22 19:02:00,
2013-01-22 14:07:00,24.5,-5.1,30.11,WSW,241,3.2,5.8,26,0.00,,---,0.00,VWS V14.01,2013-01-22 19:07:00,
2013-01-22 14:12:00,24.4,-5.3,30.11,West,281,5.8,9.1,26,0.00,,---,0.00,VWS V14.01,2013-01-22 19:12:00,
2013-01-22 14:18:00,24.5,-5.1,30.11,North,353,8.4,12.6,26,0.00,,---,0.00,VWS V14.01,2013-01-22 19:18:00,
2013-01-22 14:23:00,24.7,-4.9,30.11,North,353,5.2,5.8,26,0.00,,---,0.00,VWS V14.01,2013-01-22 19:23:00,
2013-01-22 14:28:00,24.7,-4.9,30.11,NNW,339,9.1,9.1,26,0.00,,---,0.00,VWS V14.01,2013-01-22 19:28:00,
2013-01-22 14:33:00,24.7,-4.9,30.11,NNW,343,11.7,11.7,26,0.00,,---,0.00,VWS V14.01,2013-01-22 19:33:00,
2013-01-22 14:38:00,24.9,-4.8,30.11,NNW,337,11.7,11.7,26,0.00,,---,0.00,VWS V14.01,2013-01-22 19:38:00,
2013-01-22 14:43:00,25.1,-4.6,30.11,NNW,327,12.0,15.9,26,0.00,,---,0.00,VWS V14.01,2013-01-22 19:43:00,
2013-01-22 14:48:00,25.1,-4.6,30.11,NNW,338,4.5,7.1,26,0.00,,---,0.00,VWS V14.01,2013-01-22 19:48:00,
2013-01-22 14:54:00,25.1,-4.6,30.11,NW,325,0.0,3.2,26,0.00,,---,0.00,VWS V14.01,2013-01-22 19:54:00,
2013-01-22 14:59:00,25.3,-4.5,30.11,NNW,334,7.8,7.8,26,0.00,,---,0.00,VWS V14.01,2013-01-22 19:59:00,
2013-01-22 15:04:00,25.4,-4.3,30.11,WNW,285,5.8,9.7,26,0.00,,---,0.00,VWS V14.01,2013-01-22 20:04:00,
2013-01-22 15:09:00,25.4,-4.3,30.11,North,350,12.0,12.0,26,0.00,,---,0.00,VWS V14.01,2013-01-22 20:09:00,
2013-01-22 15:14:00,25.3,-4.5,30.11,NNW,335,11.7,11.7,26,0.00,,---,0.00,VWS V14.01,2013-01-22 20:14:00,
2013-01-22 15:19:00,25.1,-4.6,30.11,North,0,4.5,9.7,26,0.00,,---,0.00,VWS V14.01,2013-01-22 20:19:00,
2013-01-22 15:24:00,25.1,-4.6,30.11,WNW,297,7.8,7.8,26,0.00,,---,0.00,VWS V14.01,2013-01-22 20:24:00,
2013-01-22 15:29:00,24.9,-4.8,30.11,NNW,332,3.2,5.2,26,0.00,,---,0.00,VWS V14.01,2013-01-22 20:29:00,
2013-01-22 15:34:00,24.9,-4.8,30.11,WSW,237,5.2,5.8,26,0.00,,---,0.00,VWS V14.01,2013-01-22 20:34:00,
2013-01-22 15:39:00,25.1,-4.6,30.11,NNW,327,0.0,7.8,26,0.00,,---,0.00,VWS V14.01,2013-01-22 20:39:00,
2013-01-22 15:44:00,25.1,-4.6,30.11,NNE,24,4.5,9.1,26,0.00,,---,0.00,VWS V14.01,2013-01-22 20:44:00,
2013-01-22 15:49:00,24.9,-4.8,30.11,NW,317,5.2,5.8,26,0.00,,---,0.00,VWS V14.01,2013-01-22 20:49:00,
2013-01-22 15:55:00,24.7,-4.9,30.11,NNW,332,9.7,14.6,26,0.00,,---,0.00,VWS V14.01,2013-01-22 20:55:00,
2013-01-22 16:00:00,24.5,-5.1,30.11,WNW,284,5.2,7.1,26,0.00,,---,0.00,VWS V14.01,2013-01-22 21:00:00,
2013-01-22 16:05:00,24.5,-5.1,30.11,West,260,0.0,9.1,26,0.00,,---,0.00,VWS V14.01,2013-01-22 21:05:00,
2013-01-22 16:10:00,24.5,-5.1,30.11,NW,307,4.5,5.8,26,0.00,,---,0.00,VWS V14.01,2013-01-22 21:10:00,
2013-01-22 16:15:00,24.5,-5.1,30.11,WSW,252,9.7,9.7,26,0.00,,---,0.00,VWS V14.01,2013-01-22 21:15:00,
2013-01-22 16:20:00,24.5,-5.1,30.11,NNW,337,5.2,5.8,26,0.00,,---,0.00,VWS V14.01,2013-01-22 21:20:00,
2013-01-22 16:25:00,24.4,-5.3,30.11,North,353,5.8,5.8,26,0.00,,---,0.00,VWS V14.01,2013-01-22 21:25:00,
2013-01-22 16:30:00,24.2,-5.4,30.11,NNE,17,0.0,4.5,26,0.00,,---,0.00,VWS V14.01,2013-01-22 21:30:00,
2013-01-22 16:32:00,24.2,-5.4,30.11,SE,126,3.2,4.5,26,0.00,,---,0.00,VWS V14.01,2013-01-22 21:32:00,
2013-01-22 16:37:00,24.2,-5.4,30.11,North,349,4.5,7.8,26,0.00,,---,0.00,VWS V14.01,2013-01-22 21:37:00,
2013-01-22 16:42:00,24.0,-4.5,30.11,NNW,335,9.1,9.1,28,0.00,,---,0.00,VWS V14.01,2013-01-22 21:42:00,
2013-01-22 16:47:00,24.0,-4.5,30.11,WSW,257,9.1,9.1,28,0.00,,---,0.00,VWS V14.01,2013-01-22 21:47:00,
2013-01-22 16:52:00,23.8,-4.7,30.11,NNE,24,3.9,3.9,28,0.00,,---,0.00,VWS V14.01,2013-01-22 21:52:00,
2013-01-22 16:57:00,23.8,-4.7,30.14,NW,318,3.9,5.8,28,0.00,,---,0.00,VWS V14.01,2013-01-22 21:57:00,
2013-01-22 17:02:00,23.6,-4.8,30.14,North,0,4.5,11.0,28,0.00,,---,0.00,VWS V14.01,2013-01-22 22:02:00,
2013-01-22 17:07:00,23.5,-5.0,30.14,SSW,207,0.0,5.2,28,0.00,,---,0.00,VWS V14.01,2013-01-22 22:07:00,
2013-01-22 17:12:00,23.3,-5.1,30.14,SE,130,0.0,4.5,28,0.00,,---,0.00,VWS V14.01,2013-01-22 22:12:00,
2013-01-22 17:17:00,23.1,-5.3,30.14,NW,325,0.0,4.5,28,0.00,,---,0.00,VWS V14.01,2013-01-22 22:17:00,
2013-01-22 17:23:00,22.9,-5.4,30.14,NW,326,4.5,4.5,28,0.00,,---,0.00,VWS V14.01,2013-01-22 22:23:00,
2013-01-22 17:28:00,22.7,-5.6,30.14,NW,318,5.2,5.2,28,0.00,,---,0.00,VWS V14.01,2013-01-22 22:28:00,
2013-01-22 17:33:00,22.6,-5.8,30.14,North,357,3.2,3.9,28,0.00,,---,0.00,VWS V14.01,2013-01-22 22:33:00,
2013-01-22 17:38:00,22.2,-6.1,30.14,North,353,7.8,7.8,28,0.00,,---,0.00,VWS V14.01,2013-01-22 22:38:00,
2013-01-22 17:43:00,22.2,-6.1,30.16,NW,309,0.0,5.2,28,0.00,,---,0.00,VWS V14.01,2013-01-22 22:43:00,
2013-01-22 17:48:00,22.0,-6.2,30.16,NW,322,3.9,3.9,28,0.00,,---,0.00,VWS V14.01,2013-01-22 22:48:00,
2013-01-22 17:53:00,21.8,-6.4,30.16,NW,312,3.9,3.9,28,0.00,,---,0.00,VWS V14.01,2013-01-22 22:53:00,
2013-01-22 17:58:00,21.7,-6.6,30.16,NNW,345,3.2,3.9,28,0.00,,---,0.00,VWS V14.01,2013-01-22 22:58:00,
2013-01-22 18:03:00,21.7,-6.6,30.16,WSW,255,5.2,5.2,28,0.00,,---,0.00,VWS V14.01,2013-01-22 23:03:00,
2013-01-22 18:08:00,21.5,-6.7,30.16,NNW,344,4.5,5.8,28,0.00,,---,0.00,VWS V14.01,2013-01-22 23:08:00,
2013-01-22 18:14:00,21.5,-6.7,30.16,NNW,344,3.9,3.9,28,0.00,,---,0.00,VWS V14.01,2013-01-22 23:14:00,
2013-01-22 18:19:00,21.3,-6.9,30.16,NNW,340,0.0,0.0,28,0.00,,---,0.00,VWS V14.01,2013-01-22 23:19:00,
2013-01-22 18:24:00,21.1,-7.0,30.16,NNW,344,0.0,3.9,28,0.00,,---,0.00,VWS V14.01,2013-01-22 23:24:00,
2013-01-22 18:29:00,21.1,-7.0,30.16,NW,313,0.0,0.0,28,0.00,,---,0.00,VWS V14.01,2013-01-22 23:29:00,
2013-01-22 18:34:00,20.9,-7.2,30.16,North,357,0.0,0.0,28,0.00,,---,0.00,VWS V14.01,2013-01-22 23:34:00,
2013-01-22 18:39:00,20.8,-7.3,30.16,NW,314,0.0,0.0,28,0.00,,---,0.00,VWS V14.01,2013-01-22 23:39:00,
2013-01-22 18:44:00,20.6,-7.5,30.16,WNW,284,0.0,0.0,28,0.00,,---,0.00,VWS V14.01,2013-01-22 23:44:00,
2013-01-22 18:49:00,20.6,-7.5,30.16,North,10,0.0,3.2,28,0.00,,---,0.00,VWS V14.01,2013-01-22 23:49:00,
2013-01-22 18:54:00,20.4,-7.7,30.16,SW,223,0.0,0.0,28,0.00,,---,0.00,VWS V14.01,2013-01-22 23:54:00,
2013-01-22 18:59:00,20.4,-7.7,30.16,NNW,346,3.2,3.2,28,0.00,,---,0.00,VWS V14.01,2013-01-22 23:59:00,
2013-01-22 19:04:00,20.2,-7.8,30.16,NNW,343,0.0,4.5,28,0.00,,---,0.00,VWS V14.01,2013-01-23 00:04:00,
2013-01-22 19:10:00,20.0,-8.0,30.16,NW,326,5.2,5.2,28,0.00,,---,0.00,VWS V14.01,2013-01-23 00:10:00,
2013-01-22 19:15:00,20.0,-8.0,30.16,North,350,0.0,0.0,28,0.00,,---,0.00,VWS V14.01,2013-01-23 00:15:00,
2013-01-22 19:20:00,19.9,-8.1,30.16,NNW,335,3.2,3.9,28,0.00,,---,0.00,VWS V14.01,2013-01-23 00:20:00,
2013-01-22 19:25:00,19.7,-8.3,30.16,NW,321,3.2,3.9,28,0.00,,---,0.00,VWS V14.01,2013-01-23 00:25:00,
2013-01-22 19:30:00,19.7,-8.3,30.16,NNW,342,0.0,3.2,28,0.00,,---,0.00,VWS V14.01,2013-01-23 00:30:00,
2013-01-22 19:35:00,19.5,-8.4,30.16,NNW,330,0.0,0.0,28,0.00,,---,0.00,VWS V14.01,2013-01-23 00:35:00,
2013-01-22 19:40:00,19.3,-8.6,30.16,NW,320,0.0,3.9,28,0.00,,---,0.00,VWS V14.01,2013-01-23 00:40:00,
2013-01-22 19:45:00,19.1,-8.8,30.16,North,357,0.0,0.0,28,0.00,,---,0.00,VWS V14.01,2013-01-23 00:45:00,
2013-01-22 19:50:00,19.0,-8.9,30.16,NW,326,0.0,3.9,28,0.00,,---,0.00,VWS V14.01,2013-01-23 00:50:00,
2013-01-22 19:55:00,19.0,-8.9,30.16,NNW,333,0.0,0.0,28,0.00,,---,0.00,VWS V14.01,2013-01-23 00:55:00,
2013-01-22 20:01:00,19.0,-8.9,30.19,ENE,58,0.0,3.2,28,0.00,,---,0.00,VWS V14.01,2013-01-23 01:01:00,
2013-01-22 20:06:00,18.8,-9.1,30.19,North,353,0.0,4.5,28,0.00,,---,0.00,VWS V14.01,2013-01-23 01:06:00,
2013-01-22 20:11:00,18.8,-9.1,30.19,NNW,336,0.0,3.9,28,0.00,,---,0.00,VWS V14.01,2013-01-23 01:11:00,
2013-01-22 20:16:00,18.8,-9.1,30.19,NW,317,0.0,5.8,28,0.00,,---,0.00,VWS V14.01,2013-01-23 01:16:00,
2013-01-22 20:22:00,18.8,-9.1,30.19,NNW,331,4.5,5.8,28,0.00,,---,0.00,VWS V14.01,2013-01-23 01:22:00,
2013-01-22 20:27:00,18.6,-8.2,30.19,NNW,331,4.5,4.5,29,0.00,,---,0.00,VWS V14.01,2013-01-23 01:27:00,
2013-01-22 20:32:00,18.6,-8.2,30.19,North,0,7.8,9.1,29,0.00,,---,0.00,VWS V14.01,2013-01-23 01:32:00,
2013-01-22 20:37:00,18.6,-8.2,30.19,NNW,332,3.2,4.5,29,0.00,,---,0.00,VWS V14.01,2013-01-23 01:37:00,
2013-01-22 20:42:00,18.6,-8.2,30.19,NNW,345,0.0,3.9,29,0.00,,---,0.00,VWS V14.01,2013-01-23 01:42:00,
2013-01-22 20:47:00,18.6,-8.2,30.19,NNW,327,4.5,4.5,29,0.00,,---,0.00,VWS V14.01,2013-01-23 01:47:00,
2013-01-22 20:52:00,18.4,-8.4,30.19,NNW,345,5.2,7.8,29,0.00,,---,0.00,VWS V14.01,2013-01-23 01:52:00,
2013-01-22 20:57:00,18.4,-8.4,30.19,NW,317,5.8,5.8,29,0.00,,---,0.00,VWS V14.01,2013-01-23 01:57:00,
2013-01-22 21:03:00,18.4,-8.4,30.19,NNW,342,3.2,3.9,29,0.00,,---,0.00,VWS V14.01,2013-01-23 02:03:00,
2013-01-22 21:08:00,18.2,-8.5,30.19,NW,325,0.0,3.2,29,0.00,,---,0.00,VWS V14.01,2013-01-23 02:08:00,
2013-01-22 21:13:00,18.1,-8.7,30.19,NW,306,0.0,4.5,29,0.00,,---,0.00,VWS V14.01,2013-01-23 02:13:00,
2013-01-22 21:18:00,17.9,-8.9,30.19,NNW,341,4.5,5.8,29,0.00,,---,0.00,VWS V14.01,2013-01-23 02:18:00,
2013-01-22 21:23:00,17.9,-8.9,30.19,NW,320,0.0,5.2,29,0.00,,---,0.00,VWS V14.01,2013-01-23 02:23:00,
2013-01-22 21:28:00,17.7,-9.0,30.19,NNW,348,0.0,0.0,29,0.00,,---,0.00,VWS V14.01,2013-01-23 02:28:00,
2013-01-22 21:33:00,17.7,-9.0,30.19,NNW,333,4.5,4.5,29,0.00,,---,0.00,VWS V14.01,2013-01-23 02:33:00,
2013-01-22 21:38:00,17.5,-9.2,30.19,NW,312,0.0,3.2,29,0.00,,---,0.00,VWS V14.01,2013-01-23 02:38:00,
2013-01-22 21:43:00,17.5,-9.2,30.19,NNW,341,3.9,3.9,29,0.00,,---,0.00,VWS V14.01,2013-01-23 02:43:00,
2013-01-22 21:49:00,17.3,-9.3,30.19,North,353,0.0,3.2,29,0.00,,---,0.00,VWS V14.01,2013-01-23 02:49:00,
2013-01-22 21:54:00,17.0,-9.6,30.19,NNW,334,3.2,3.2,29,0.00,,---,0.00,VWS V14.01,2013-01-23 02:54:00,
2013-01-22 21:59:00,17.0,-9.6,30.19,North,353,3.9,3.9,29,0.00,,---,0.00,VWS V14.01,2013-01-23 02:59:00,
2013-01-22 22:04:00,16.8,-9.8,30.19,NNW,331,0.0,0.0,29,0.00,,---,0.00,VWS V14.01,2013-01-23 03:04:00,
2013-01-22 22:09:00,16.8,-9.8,30.19,NNW,344,0.0,0.0,29,0.00,,---,0.00,VWS V14.01,2013-01-23 03:09:00,
2013-01-22 22:14:00,16.6,-10.0,30.19,North,349,0.0,0.0,29,0.00,,---,0.00,VWS V14.01,2013-01-23 03:14:00,
2013-01-22 22:19:00,16.4,-10.1,30.19,North,349,0.0,0.0,29,0.00,,---,0.00,VWS V14.01,2013-01-23 03:19:00,
2013-01-22 22:24:00,16.3,-10.3,30.19,North,349,0.0,0.0,29,0.00,,---,0.00,VWS V14.01,2013-01-23 03:24:00,
2013-01-22 22:29:00,16.4,-10.1,30.19,North,349,0.0,0.0,29,0.00,,---,0.00,VWS V14.01,2013-01-23 03:29:00,
2013-01-22 22:35:00,16.4,-10.1,30.19,North,349,0.0,0.0,29,0.00,,---,0.00,VWS V14.01,2013-01-23 03:35:00,
2013-01-22 22:40:00,16.6,-10.0,30.19,North,349,0.0,0.0,29,0.00,,---,0.00,VWS V14.01,2013-01-23 03:40:00,
2013-01-22 22:45:00,16.4,-10.1,30.19,North,349,0.0,0.0,29,0.00,,---,0.00,VWS V14.01,2013-01-23 03:45:00,
2013-01-22 22:50:00,16.4,-10.1,30.19,North,349,0.0,0.0,29,0.00,,---,0.00,VWS V14.01,2013-01-23 03:50:00,
2013-01-22 22:55:00,16.3,-10.3,30.19,North,349,0.0,0.0,29,0.00,,---,0.00,VWS V14.01,2013-01-23 03:55:00,
2013-01-22 23:00:00,15.9,-10.6,30.19,North,349,0.0,0.0,29,0.00,,---,0.00,VWS V14.01,2013-01-23 04:00:00,
2013-01-22 23:05:00,15.4,-11.1,30.19,North,349,0.0,0.0,29,0.00,,---,0.00,VWS V14.01,2013-01-23 04:05:00,
2013-01-22 23:10:00,15.0,-10.4,30.19,West,277,0.0,0.0,31,0.00,,---,0.00,VWS V14.01,2013-01-23 04:10:00,
2013-01-22 23:15:00,15.0,-10.4,30.19,WSW,251,0.0,0.0,31,0.00,,---,0.00,VWS V14.01,2013-01-23 04:15:00,
2013-01-22 23:20:00,15.2,-11.2,30.19,NNW,333,0.0,0.0,29,0.00,,---,0.00,VWS V14.01,2013-01-23 04:20:00,
2013-01-22 23:25:00,15.4,-8.4,30.19,NNW,333,0.0,0.0,33,0.00,,---,0.00,VWS V14.01,2013-01-23 04:25:00,
2013-01-22 23:31:00,15.5,-8.2,30.19,West,279,0.0,0.0,33,0.00,,---,0.00,VWS V14.01,2013-01-23 04:31:00,
2013-01-22 23:36:00,15.5,-8.2,30.19,West,279,0.0,0.0,33,0.00,,---,0.00,VWS V14.01,2013-01-23 04:36:00,
2013-01-22 23:41:00,15.4,-8.4,30.19,West,279,0.0,0.0,33,0.00,,---,0.00,VWS V14.01,2013-01-23 04:41:00,
2013-01-22 23:46:00,14.8,-8.9,30.19,West,280,0.0,0.0,33,0.00,,---,0.00,VWS V14.01,2013-01-23 04:46:00,
2013-01-22 23:51:00,14.5,-9.2,30.19,West,279,0.0,0.0,33,0.00,,---,0.00,VWS V14.01,2013-01-23 04:51:00,
2013-01-22 23:56:00,14.5,-9.2,30.19,West,279,0.0,0.0,33,0.00,,---,0.00,VWS V14.01,2013-01-23 04:56:00,